スイフト-ゲーレルス彗星

64P/Swift-Gehrels (2009)

English version
Home page
Updated on October 3, 2010

---------------------------------------------------------------------

・ プロフィール

・ 写真集

・ 軌道要素

Epoch 2009 June 18.0 TT = JDT 2455000.5
T 2009 June 14.35407 TT                                 MPC
q   1.3770083            (2000.0)            P               Q
n   0.10550741     Peri.   96.30608     +0.78771771     -0.60134579
a   4.4355494      Node   300.74276     +0.48558276     +0.73968856
e   0.6895518      Incl.    8.95143     +0.37909127     +0.30206635
P   9.34

・ 星図

・ 光度変化

        m1 = 9.5 + 5 logΔ + 15.0 log r

---------------------------------------------------------------------

軌道要素はM.P.E.C. 2009-O02に掲載されたものです。
星図は StellaNavigator Ver.2.0 for Windows (アストロアーツ編著 / アスキー出版局刊) で作成したものです。
光度グラフはComet for Windowsで作成したものです。

---------------------------------------------------------------------

Copyright(C) Seiichi Yoshida (comet@aerith.net). All rights reserved.